International Skating Union - Official Site

ISU World Cup Heerenveen
December 9-11, 2016

Draw | Lap Times | Index | World Cup

Referee: Karl  SKOOG  (SWE)
Starter: Roman  DANILOV  (RUS)
StartTime: EndTime: Air Temp: Ice Temp: Humidity:
16:00 17:46 15.5℃ -7.8℃ 30%
Result 10000m Men Division A
Rankings as of Dec 11 2016 6:00PM
Rank: No.: Name: Nation: Time: Behind: Points:
1 85 Jorrit  Bergsma NED NED 12:52.20400m - 34.60 - (34.6)
800m - 1:05.34 - (30.7)
1200m - 1:36.36 - (31.0)
1600m - 2:07.36 - (31.0)
2000m - 2:38.33 - (30.9)
2400m - 3:09.39 - (31.0)
2800m - 3:40.18 - (30.7)
3200m - 4:11.17 - (30.9)
3600m - 4:41.88 - (30.7)
4000m - 5:12.76 - (30.8)
4400m - 5:43.61 - (30.8)
4800m - 6:14.68 - (31.0)
5200m - 6:45.54 - (30.8)
5600m - 7:16.71 - (31.1)
6000m - 7:47.77 - (31.0)
6400m - 8:18.68 - (30.9)
6800m - 8:49.46 - (30.7)
7200m - 9:20.13 - (30.6)
7600m - 9:50.55 - (30.4)
8000m - 10:21.03 - (30.4)
8400m - 10:51.46 - (30.4)
8800m - 11:21.78 - (30.3)
9200m - 11:52.01 - (30.2)
9600m - 12:22.16 - (30.1)
10000m - 12:52.20 - (30.0)
100
2 92 Erik-Jan  Kooiman NED NED 12:57.92400m - 35.37 - (35.3)
800m - 1:05.53 - (30.1)
1200m - 1:36.14 - (30.6)
1600m - 2:06.78 - (30.6)
2000m - 2:37.43 - (30.6)
2400m - 3:07.90 - (30.4)
2800m - 3:38.35 - (30.4)
3200m - 4:08.97 - (30.6)
3600m - 4:39.68 - (30.7)
4000m - 5:10.50 - (30.8)
4400m - 5:41.15 - (30.6)
4800m - 6:11.92 - (30.7)
5200m - 6:42.60 - (30.6)
5600m - 7:13.40 - (30.7)
6000m - 7:44.44 - (31.0)
6400m - 8:15.41 - (30.9)
6800m - 8:46.45 - (31.0)
7200m - 9:17.46 - (31.0)
7600m - 9:48.62 - (31.1)
8000m - 10:20.11 - (31.4)
8400m - 10:51.67 - (31.5)
8800m - 11:23.20 - (31.5)
9200m - 11:54.73 - (31.5)
9600m - 12:26.30 - (31.5)
10000m - 12:57.92 - (31.6)
5.72 80
3 12 Ted-Jan  Bloemen CAN CAN 13:00.07400m - 33.49 - (33.4)
800m - 1:03.47 - (29.9)
1200m - 1:33.94 - (30.4)
1600m - 2:04.51 - (30.5)
2000m - 2:35.03 - (30.5)
2400m - 3:05.84 - (30.8)
2800m - 3:36.68 - (30.8)
3200m - 4:07.72 - (31.0)
3600m - 4:39.20 - (31.4)
4000m - 5:10.79 - (31.5)
4400m - 5:42.07 - (31.2)
4800m - 6:13.70 - (31.6)
5200m - 6:45.51 - (31.8)
5600m - 7:17.07 - (31.5)
6000m - 7:48.45 - (31.3)
6400m - 8:19.56 - (31.1)
6800m - 8:50.68 - (31.1)
7200m - 9:21.89 - (31.2)
7600m - 9:53.13 - (31.2)
8000m - 10:24.58 - (31.4)
8400m - 10:55.68 - (31.0)
8800m - 11:27.24 - (31.5)
9200m - 11:58.57 - (31.3)
9600m - 12:29.50 - (30.9)
10000m - 13:00.07 - (30.5)
7.87 70
4 44 Patrick  Beckert GER GER 13:06.14400m - 35.12 - (35.1)
800m - 1:05.82 - (30.6)
1200m - 1:36.66 - (30.8)
1600m - 2:07.81 - (31.1)
2000m - 2:38.88 - (31.0)
2400m - 3:09.88 - (30.9)
2800m - 3:41.08 - (31.1)
3200m - 4:12.19 - (31.1)
3600m - 4:43.40 - (31.2)
4000m - 5:14.71 - (31.3)
4400m - 5:45.83 - (31.1)
4800m - 6:17.04 - (31.2)
5200m - 6:48.44 - (31.4)
5600m - 7:20.00 - (31.5)
6000m - 7:51.75 - (31.7)
6400m - 8:23.52 - (31.7)
6800m - 8:54.91 - (31.3)
7200m - 9:26.60 - (31.6)
7600m - 9:58.09 - (31.4)
8000m - 10:29.67 - (31.5)
8400m - 11:01.16 - (31.4)
8800m - 11:32.57 - (31.4)
9200m - 12:03.95 - (31.3)
9600m - 12:34.97 - (31.0)
10000m - 13:06.14 - (31.1)
13.94 60
5 88 Douwe  de Vries NED NED 13:06.90400m - 34.29 - (34.2)
800m - 1:04.43 - (30.1)
1200m - 1:35.86 - (31.4)
1600m - 2:07.54 - (31.6)
2000m - 2:38.95 - (31.4)
2400m - 3:10.29 - (31.3)
2800m - 3:41.53 - (31.2)
3200m - 4:12.64 - (31.1)
3600m - 4:43.88 - (31.2)
4000m - 5:15.22 - (31.3)
4400m - 5:46.55 - (31.3)
4800m - 6:17.88 - (31.3)
5200m - 6:49.30 - (31.4)
5600m - 7:20.74 - (31.4)
6000m - 7:52.13 - (31.3)
6400m - 8:23.65 - (31.5)
6800m - 8:55.16 - (31.5)
7200m - 9:26.55 - (31.3)
7600m - 9:58.06 - (31.5)
8000m - 10:29.53 - (31.4)
8400m - 11:01.06 - (31.5)
8800m - 11:32.55 - (31.4)
9200m - 12:03.87 - (31.3)
9600m - 12:35.19 - (31.3)
10000m - 13:06.90 - (31.7)
14.70 50
6 46 Moritz  Geisreiter GER GER 13:11.34400m - 34.53 - (34.5)
800m - 1:05.47 - (30.9)
1200m - 1:37.33 - (31.8)
1600m - 2:09.18 - (31.8)
2000m - 2:40.73 - (31.5)
2400m - 3:12.27 - (31.5)
2800m - 3:43.78 - (31.5)
3200m - 4:15.18 - (31.3)
3600m - 4:46.61 - (31.4)
4000m - 5:17.97 - (31.3)
4400m - 5:49.36 - (31.3)
4800m - 6:20.72 - (31.3)
5200m - 6:52.07 - (31.3)
5600m - 7:23.30 - (31.2)
6000m - 7:54.70 - (31.4)
6400m - 8:26.39 - (31.6)
6800m - 8:58.23 - (31.8)
7200m - 9:29.84 - (31.6)
7600m - 10:01.52 - (31.6)
8000m - 10:33.16 - (31.6)
8400m - 11:05.05 - (31.8)
8800m - 11:37.22 - (32.1)
9200m - 12:09.23 - (32.0)
9600m - 12:40.48 - (31.2)
10000m - 13:11.34 - (30.8)
19.14 45
7 69 Ryosuke  Tsuchiya JPN JPN 13:12.82400m - 35.12 - (35.1)
800m - 1:06.21 - (31.0)
1200m - 1:38.31 - (32.0)
1600m - 2:10.61 - (32.2)
2000m - 2:42.38 - (31.7)
2400m - 3:14.22 - (31.8)
2800m - 3:46.12 - (31.8)
3200m - 4:17.82 - (31.7)
3600m - 4:49.42 - (31.5)
4000m - 5:21.08 - (31.6)
4400m - 5:52.74 - (31.6)
4800m - 6:24.42 - (31.6)
5200m - 6:55.91 - (31.4)
5600m - 7:27.60 - (31.6)
6000m - 7:59.03 - (31.4)
6400m - 8:30.23 - (31.1)
6800m - 9:01.37 - (31.1)
7200m - 9:32.60 - (31.2)
7600m - 10:03.80 - (31.1)
8000m - 10:34.99 - (31.1)
8400m - 11:06.20 - (31.2)
8800m - 11:37.90 - (31.6)
9200m - 12:08.99 - (31.0)
9600m - 12:40.73 - (31.7)
10000m - 13:12.82 - (32.0)
20.62 40
8 6 Bart  Swings BEL BEL 13:15.27400m - 35.06 - (35.0)
800m - 1:07.24 - (32.1)
1200m - 1:39.44 - (32.1)
1600m - 2:11.51 - (32.0)
2000m - 2:42.80 - (31.2)
2400m - 3:14.50 - (31.7)
2800m - 3:46.24 - (31.7)
3200m - 4:18.26 - (32.0)
3600m - 4:49.95 - (31.6)
4000m - 5:21.90 - (31.9)
4400m - 5:53.59 - (31.6)
4800m - 6:25.33 - (31.7)
5200m - 6:56.98 - (31.6)
5600m - 7:28.77 - (31.7)
6000m - 8:00.37 - (31.5)
6400m - 8:31.92 - (31.5)
6800m - 9:03.31 - (31.3)
7200m - 9:34.75 - (31.4)
7600m - 10:06.23 - (31.4)
8000m - 10:37.77 - (31.5)
8400m - 11:09.14 - (31.3)
8800m - 11:40.55 - (31.4)
9200m - 12:12.03 - (31.4)
9600m - 12:43.46 - (31.4)
10000m - 13:15.27 - (31.8)
23.07 35
9 118 Peter  Michael NZL NZL 13:18.32400m - 34.44 - (34.4)
800m - 1:04.46 - (30.0)
1200m - 1:35.59 - (31.1)
1600m - 2:06.49 - (30.9)
2000m - 2:37.70 - (31.2)
2400m - 3:08.70 - (31.0)
2800m - 3:39.89 - (31.1)
3200m - 4:10.30 - (30.4)
3600m - 4:41.55 - (31.2)
4000m - 5:12.51 - (30.9)
4400m - 5:43.67 - (31.1)
4800m - 6:14.93 - (31.2)
5200m - 6:47.01 - (32.0)
5600m - 7:19.06 - (32.0)
6000m - 7:51.42 - (32.3)
6400m - 8:23.90 - (32.4)
6800m - 8:56.35 - (32.4)
7200m - 9:28.81 - (32.4)
7600m - 10:01.53 - (32.7)
8000m - 10:34.36 - (32.8)
8400m - 11:07.21 - (32.8)
8800m - 11:40.57 - (33.3)
9200m - 12:13.67 - (33.1)
9600m - 12:46.29 - (32.6)
10000m - 13:18.32 - (32.0)
26.12 30
10 55 Andrea  Giovannini ITA ITA 13:18.86400m - 35.47 - (35.4)
800m - 1:07.30 - (31.8)
1200m - 1:39.42 - (32.1)
1600m - 2:10.95 - (31.5)
2000m - 2:42.66 - (31.7)
2400m - 3:14.30 - (31.6)
2800m - 3:46.18 - (31.8)
3200m - 4:17.88 - (31.7)
3600m - 4:49.87 - (31.9)
4000m - 5:21.46 - (31.5)
4400m - 5:53.42 - (31.9)
4800m - 6:25.15 - (31.7)
5200m - 6:56.82 - (31.6)
5600m - 7:28.27 - (31.4)
6000m - 8:00.14 - (31.8)
6400m - 8:31.61 - (31.4)
6800m - 9:03.21 - (31.6)
7200m - 9:34.67 - (31.4)
7600m - 10:06.31 - (31.6)
8000m - 10:37.80 - (31.4)
8400m - 11:09.59 - (31.7)
8800m - 11:41.59 - (31.9)
9200m - 12:13.89 - (32.3)
9600m - 12:46.06 - (32.1)
10000m - 13:18.86 - (32.8)
26.66 25
11 59 Nicola  Tumolero ITA ITA 13:21.73400m - 35.22 - (35.2)
800m - 1:07.29 - (32.0)
1200m - 1:39.74 - (32.4)
1600m - 2:11.52 - (31.7)
2000m - 2:43.85 - (32.3)
2400m - 3:15.78 - (31.9)
2800m - 3:47.67 - (31.8)
3200m - 4:19.94 - (32.2)
3600m - 4:52.14 - (32.1)
4000m - 5:24.43 - (32.2)
4400m - 5:56.11 - (31.6)
4800m - 6:27.94 - (31.8)
5200m - 6:59.47 - (31.5)
5600m - 7:30.73 - (31.2)
6000m - 8:01.92 - (31.1)
6400m - 8:33.31 - (31.3)
6800m - 9:04.74 - (31.4)
7200m - 9:36.54 - (31.7)
7600m - 10:08.21 - (31.6)
8000m - 10:40.14 - (31.9)
8400m - 11:12.23 - (32.0)
8800m - 11:44.46 - (32.2)
9200m - 12:16.81 - (32.3)
9600m - 12:49.31 - (32.4)
10000m - 13:21.73 - (32.4)
29.53 21
12 112 Ole Bjørnsmoen   Næss NOR NOR 13:47.00400m - 35.88 - (35.8)
800m - 1:07.62 - (31.7)
1200m - 1:39.47 - (31.8)
1600m - 2:11.59 - (32.1)
2000m - 2:43.44 - (31.8)
2400m - 3:15.62 - (32.1)
2800m - 3:47.95 - (32.3)
3200m - 4:20.41 - (32.4)
3600m - 4:52.89 - (32.4)
4000m - 5:25.56 - (32.6)
4400m - 5:58.14 - (32.5)
4800m - 6:31.01 - (32.8)
5200m - 7:03.89 - (32.8)
5600m - 7:37.09 - (33.1)
6000m - 8:10.45 - (33.3)
6400m - 8:43.65 - (33.1)
6800m - 9:16.87 - (33.2)
7200m - 9:50.23 - (33.3)
7600m - 10:23.70 - (33.4)
8000m - 10:57.22 - (33.5)
8400m - 11:30.81 - (33.5)
8800m - 12:04.62 - (33.8)
9200m - 12:38.54 - (33.9)
9600m - 13:12.62 - (34.0)
10000m - 13:47.0 - (34.3)
54.80 18